Home   Weather   Adamstown   Past weeks
Flag for Pitcairn Islands

Past Weather in Adamstown, Pitcairn Islands — Yesterday and Last 2 Weeks

Now
72 °F

Overcast.


Feels Like: 73 °F
Forecast: 72 / 68 °F
Wind: 7 mph from Northeast

Location: Rikitea

Current Time: Oct 21, 2019 at 2:36:20 pm

Latest Report: Oct 21, 2019 at 1:00 pm


Visibility: 19 mi

Pressure: 30.07 "Hg

Humidity: 75%

Dew Point: 63 °F

Location of AdamstownLocation

Past Weather in Adamstown — Graph

°F

Adamstown Temperature Yesterday

Maximum temperature yesterday: 72 °F (at 12:00 pm)
Minimum temperature yesterday: 68 °F (at 2:00 am)
Average temperature yesterday: 69 °F

High & Low Weather Summary for the Past Weeks

 TemperatureHumidityPressure
High78 °F (Oct 15, 12:00 pm)98% (Oct 6, 5:00 pm)30.25 "Hg (Oct 6, 5:00 pm)
Low61 °F (Oct 8, 9:00 pm)59% (Oct 11, 9:00 am)29.89 "Hg (Oct 10, 4:00 am)
Average69 °F81%30.05 "Hg
* Reported Oct 6 1:00 pm — Oct 21 1:00 pm, Adamstown. Weather by CustomWeather, © 2019

Note: Actual official high and low records may vary slightly from our data, if they occured in-between our weather recording intervals... More about our weather records

Advertising

Adamstown Weather History for the Previous 24 Hours

Scroll right to see more
 ConditionsComfort  
Time TempWeatherWind HumidityBarometerVisibility
1:00 pm
Mon, Oct 21
72 °FOvercast.7 mph75%30.07 "Hg19 mi
12:00 pm73 °FOvercast.6 mph75%30.09 "Hg19 mi
11:00 am72 °FOvercast.5 mph75%30.10 "Hg19 mi
10:00 am72 °FOvercast.5 mph73%30.11 "Hg19 mi
9:00 am72 °FPartly sunny.5 mph73%30.11 "Hg19 mi
8:00 am71 °FPartly sunny.3 mph74%30.10 "Hg19 mi
7:00 am69 °FPartly sunny.3 mph78%30.09 "Hg19 mi
6:00 am69 °FMild.3 mph79%30.06 "HgN/A
5:00 am68 °FMild.8 mph82%30.06 "HgN/A
4:00 am69 °FMild.8 mph78%30.05 "HgN/A
3:00 am69 °FMild.7 mph78%30.06 "HgN/A
2:00 am69 °FMild.8 mph78%30.08 "HgN/A
1:00 am69 °FMild.2 mph74%30.09 "HgN/A
12:00 am69 °FMild.8 mph75%30.11 "HgN/A
11:00 pm
Sun, Oct 20
69 °FMild.8 mph75%30.13 "HgN/A
10:00 pm69 °FMild.7 mph79%30.13 "HgN/A
9:00 pm69 °FMild.8 mph79%30.11 "HgN/A
8:00 pm69 °FMild.9 mph78%30.10 "HgN/A
7:00 pm69 °FMild.8 mph77%30.09 "HgN/A
6:00 pm70 °FMild.8 mph68%30.08 "HgN/A
5:00 pm70 °FPartly sunny.9 mph72%30.06 "Hg19 mi
4:00 pm71 °FOvercast.8 mph68%30.07 "Hg19 mi
3:00 pm71 °FScattered clouds.10 mph71%30.08 "Hg19 mi
2:00 pm71 °FOvercast.8 mph69%30.10 "Hg19 mi
Weather by CustomWeather, © 2019

See weather overview